Sugarloaf, CA

4:58 AM PST on February 14, 2016 (GMT -0800)
Big Bear City

Weather History for KL35 - September, 2012

Change the Weather History Date:

Thursday, September 13, 2012

  Actual Average (KBUO) Record (KBUO)
Temperature  
Mean Temperature 58 °F -  
Max Temperature 73 °F 86 °F 95 °F (2000)
Min Temperature 44 °F 58 °F 51 °F (1997)
Degree Days  
Heating Degree Days 6    
Growing Degree Days 8 (Base 50)    
Moisture  
Dew Point 32 °F    
Average Humidity 44    
Maximum Humidity 76    
Minimum Humidity 17    
Precipitation  
Precipitation 0.00 in - - ()
Sea Level Pressure  
Sea Level Pressure 30.39 in    
Wind  
Wind Speed 3 mph (ENE)    
Max Wind Speed 16 mph    
Max Gust Speed 23 mph    
Visibility 10 miles    
Events      
Averages and records for this station are not official NWS values.
T = Trace of Precipitation, MM = Missing Value Source: NWS Daily Summary

Daily Weather History Graph

Daily Weather History Graph

Search for Another Location

Airport or City:

Trip Planner

Search our weather history database for the weather conditions in past years. The results will help you decide how hot, cold, wet, or windy it might be!

Date:

Astronomy

Sep. 13, 2012 Rise Set
Actual Time 6:29 AM PDT 6:56 PM PDT
Civil Twilight 6:04 AM PDT 7:21 PM PDT
Nautical Twilight 5:34 AM PDT 7:50 PM PDT
Astronomical Twilight 5:04 AM PDT 8:20 PM PDT
Moon 3:58 AM PDT (9/13) 5:18 PM PDT (9/13)
Length of Visible Light 13h 16m
Length of Day
12h 26m
Waning Crescent, 7% of the Moon is Illuminated
Sep 13
Waning Crescent
Sep 15
New
Sep 22
First Quarter
Sep 29
Full
Oct 8
Last Quarter

Hourly Weather History & Observations

Time (PDT) Temp. Windchill Dew Point Humidity Pressure Visibility Wind Dir Wind Speed Gust Speed Precip Events Conditions
12:15 AM 46.4 °F - 35.6 °F 66% 30.36 in 10.0 mi Calm Calm - N/A   Clear
12:35 AM 44.6 °F - 35.6 °F 71% 30.37 in 10.0 mi Calm Calm - N/A   Clear
12:55 AM 44.6 °F - 35.6 °F 71% 30.37 in 10.0 mi Calm Calm - N/A   Clear
1:15 AM 44.6 °F - 35.6 °F 71% 30.36 in 10.0 mi Calm Calm - N/A   Clear
1:35 AM 44.6 °F - 35.6 °F 71% 30.36 in 10.0 mi Calm Calm - N/A   Clear
1:55 AM 44.6 °F - 35.6 °F 71% 30.36 in 10.0 mi Calm Calm - N/A   Clear
2:15 AM 44.6 °F - 35.6 °F 71% 30.36 in 10.0 mi Calm Calm - N/A   Clear
2:35 AM 44.6 °F - 35.6 °F 71% 30.35 in 10.0 mi Calm Calm - N/A   Clear
2:55 AM 44.6 °F - 35.6 °F 71% 30.35 in 10.0 mi Calm Calm - N/A   Clear
3:15 AM 44.6 °F - 35.6 °F 71% 30.35 in 10.0 mi Calm Calm - N/A   Clear
3:35 AM 44.6 °F - 35.6 °F 71% 30.35 in 10.0 mi Calm Calm - N/A   Clear
3:55 AM 44.6 °F - 35.6 °F 71% 30.35 in 10.0 mi Calm Calm - N/A   Clear
4:15 AM 44.6 °F - 35.6 °F 71% 30.36 in 10.0 mi Calm Calm - N/A   Clear
4:35 AM 44.6 °F - 35.6 °F 71% 30.36 in 10.0 mi Calm Calm - N/A   Clear
4:55 AM 44.6 °F - 35.6 °F 71% 30.36 in 10.0 mi Calm Calm - N/A   Clear
5:15 AM 44.6 °F - 35.6 °F 71% 30.37 in 10.0 mi Calm Calm - N/A   Clear
5:35 AM 44.6 °F - 35.6 °F 71% 30.37 in 10.0 mi Calm Calm - N/A   Clear
5:55 AM 44.6 °F - 35.6 °F 71% 30.38 in 10.0 mi Calm Calm - N/A   Clear
6:15 AM 44.6 °F - 37.4 °F 76% 30.38 in 10.0 mi Calm Calm - N/A   Clear
6:35 AM 44.6 °F - 37.4 °F 76% 30.39 in 10.0 mi Calm Calm - N/A   Clear
6:55 AM 44.6 °F - 37.4 °F 76% 30.39 in 10.0 mi Calm Calm - N/A   Clear
7:15 AM 46.4 °F - 37.4 °F 71% 30.40 in 10.0 mi Calm Calm - N/A   Clear
7:35 AM 48.2 °F - 39.2 °F 71% 30.40 in 10.0 mi Calm Calm - N/A   Clear
7:55 AM 51.8 °F - 41.0 °F 67% 30.40 in 7.0 mi Calm Calm - N/A   Clear
8:15 AM 57.2 °F - 42.8 °F 59% 30.40 in 10.0 mi East 3.5 mph - N/A   Clear
8:35 AM 62.6 °F - 41.0 °F 45% 30.40 in 10.0 mi East 8.1 mph - N/A   Clear
8:55 AM 64.4 °F - 33.8 °F 32% 30.40 in 10.0 mi ENE 11.5 mph - N/A   Clear
9:15 AM 64.4 °F - 32.0 °F 30% 30.41 in 10.0 mi NE 9.2 mph - N/A   Clear
9:35 AM 66.2 °F - 32.0 °F 28% 30.41 in 10.0 mi ENE 9.2 mph - N/A   Clear
9:55 AM 68.0 °F - 32.0 °F 26% 30.41 in 10.0 mi NE 11.5 mph - N/A   Clear
10:15 AM 66.2 °F - 32.0 °F 28% 30.41 in 10.0 mi ENE 10.4 mph 17.3 mph N/A   Clear
10:35 AM 68.0 °F - 32.0 °F 26% 30.42 in 10.0 mi NE 11.5 mph - N/A   Clear
10:55 AM 68.0 °F - 32.0 °F 26% 30.42 in 10.0 mi NNE 8.1 mph 21.9 mph N/A   Clear
11:15 AM 69.8 °F - 32.0 °F 25% 30.42 in 10.0 mi ENE 9.2 mph 18.4 mph N/A   Clear
11:35 AM 69.8 °F - 30.2 °F 23% 30.42 in 10.0 mi ENE 12.7 mph 19.6 mph N/A   Clear
11:55 AM 69.8 °F - 30.2 °F 23% 30.42 in 10.0 mi East 13.8 mph 17.3 mph N/A   Clear
12:15 PM 69.8 °F - 30.2 °F 23% 30.42 in 10.0 mi NNE 11.5 mph 16.1 mph N/A   Clear
12:35 PM 69.8 °F - 30.2 °F 23% 30.41 in 10.0 mi ENE 10.4 mph 19.6 mph N/A   Clear
12:55 PM 69.8 °F - 30.2 °F 23% 30.41 in 10.0 mi NE 10.4 mph 18.4 mph N/A   Clear
1:15 PM 71.6 °F - 30.2 °F 22% 30.40 in 10.0 mi ENE 16.1 mph 23.0 mph N/A   Clear
1:35 PM 71.6 °F - 26.6 °F 19% 30.40 in 10.0 mi ENE 12.7 mph 20.7 mph N/A   Clear
1:55 PM 71.6 °F - 28.4 °F 20% 30.39 in 10.0 mi NE 12.7 mph 20.7 mph N/A   Clear
2:15 PM 71.6 °F - 28.4 °F 20% 30.39 in 10.0 mi NE 13.8 mph 19.6 mph N/A   Clear
2:35 PM 71.6 °F - 26.6 °F 19% 30.39 in 10.0 mi ENE 13.8 mph 19.6 mph N/A   Clear
2:55 PM 71.6 °F - 24.8 °F 17% 30.38 in 10.0 mi NE 11.5 mph 16.1 mph N/A   Clear
3:15 PM 71.6 °F - 24.8 °F 17% 30.38 in 10.0 mi NE 10.4 mph 17.3 mph N/A   Clear
3:35 PM 71.6 °F - 26.6 °F 19% 30.38 in 10.0 mi ENE 10.4 mph 19.6 mph N/A   Clear
3:55 PM 73.4 °F - 30.2 °F 20% 30.37 in 10.0 mi East 12.7 mph 17.3 mph N/A   Clear
4:15 PM 71.6 °F - 30.2 °F 22% 30.37 in 10.0 mi ENE 11.5 mph 23.0 mph N/A   Clear
4:35 PM 71.6 °F - 30.2 °F 22% 30.37 in 10.0 mi ESE 8.1 mph 16.1 mph N/A   Clear
4:55 PM 71.6 °F - 28.4 °F 20% 30.37 in 10.0 mi ENE 8.1 mph - N/A   Clear
5:15 PM 71.6 °F - 28.4 °F 20% 30.37 in 10.0 mi East 15.0 mph 19.6 mph N/A   Clear
5:35 PM 71.6 °F - 24.8 °F 17% 30.37 in 10.0 mi ENE 10.4 mph - N/A   Clear
5:55 PM 69.8 °F - 28.4 °F 21% 30.38 in 10.0 mi NNE 6.9 mph - N/A   Clear
6:15 PM 69.8 °F - 28.4 °F 21% 30.38 in 10.0 mi NE 6.9 mph - N/A   Clear
6:35 PM 68.0 °F - 26.6 °F 21% 30.38 in 10.0 mi ENE 6.9 mph - N/A   Clear
6:55 PM 68.0 °F - 26.6 °F 21% 30.38 in 10.0 mi ENE 3.5 mph - N/A   Clear
7:15 PM 64.4 °F - 30.2 °F 28% 30.38 in 10.0 mi Calm Calm - N/A   Clear
7:35 PM 60.8 °F - 30.2 °F 31% 30.39 in 10.0 mi Calm Calm - N/A   Clear
7:55 PM 57.2 °F - 30.2 °F 36% 30.39 in 10.0 mi Calm Calm - N/A   Clear
8:15 PM 55.4 °F - 30.2 °F 38% 30.40 in 10.0 mi Calm Calm - N/A   Clear
8:35 PM 53.6 °F - 30.2 °F 41% 30.40 in 10.0 mi Calm Calm - N/A   Clear
8:55 PM 51.8 °F - 30.2 °F 44% 30.41 in 10.0 mi Calm Calm - N/A   Clear
9:15 PM 50.0 °F - 30.2 °F 47% 30.41 in 10.0 mi Calm Calm - N/A   Clear
9:35 PM 50.0 °F - 30.2 °F 47% 30.42 in 10.0 mi Calm Calm - N/A   Clear
9:55 PM 48.2 °F - 28.4 °F 46% 30.42 in 10.0 mi Calm Calm - N/A   Clear
10:15 PM 46.4 °F - 28.4 °F 50% 30.42 in 10.0 mi Calm Calm - N/A   Clear
10:35 PM 46.4 °F - 28.4 °F 50% 30.42 in 10.0 mi Calm Calm - N/A   Clear
10:55 PM 44.6 °F - 26.6 °F 49% 30.42 in 10.0 mi Calm Calm - N/A   Clear
11:15 PM 44.6 °F - 26.6 °F 49% 30.42 in 10.0 mi Calm Calm - N/A   Clear
11:35 PM 44.6 °F - 26.6 °F 49% 30.42 in 10.0 mi Calm Calm - N/A   Clear
11:55 PM 44.6 °F 43.1 °F 26.6 °F 49% 30.42 in 10.0 mi West 3.5 mph - N/A   Clear